AFR736 LFPG-FZAA

Flight info

Callsign AFR736
Flight time 8h 22m
Altitude 35000
Route LGL UT176 TERPO UN872 ERIGA UZ218 FUJTI/N0481F370 DCT BAKUP DCT BATAX DCT PINOX DCT BIRBA DCT OSLAD UR724 IBALU/N0489F390 UR724 ADM UR977 BULIS UR981 BAKAB/N0485F400 UA603 LIPET/N0487F390 DCT BATIA DCT TENTU/N0483F410 DCT ARDEX DCT BTA DCT MOVOD UG856 BZ DCT KSA
Aircraft A359/H-SDE2E3GHIJ3J4J5LM1ORWXY/LB1D1

Departure

Time 2026-04-24 07:30
Airport Charles de Gaulle International Airport (LFPG)

Arrival

Time 2026-04-24 15:53
Airport Ndjili International Airport (FZAA)
Time Latitude Longitude Altitude Speed Heading
2026-04-24 06:34 49.00141 2.57820 361 ft 0 kts 355°
2026-04-24 07:16 49.00121 2.57824 363 ft 4 kts 354°
2026-04-24 07:16 49.00095 2.57832 367 ft 4 kts 330°
2026-04-24 07:16 49.00076 2.57857 368 ft 4 kts 296°
2026-04-24 07:17 49.00070 2.57890 364 ft 1 kts 265°
2026-04-24 07:17 49.00070 2.57891 364 ft 0 kts 265°
2026-04-24 07:22 49.00068 2.57849 366 ft 8 kts 265°
2026-04-24 07:22 49.00055 2.57762 368 ft 9 kts 235°
2026-04-24 07:22 49.00000 2.57720 363 ft 9 kts 212°
2026-04-24 07:23 48.99976 2.57632 367 ft 10 kts 262°
2026-04-24 07:23 48.99964 2.57464 360 ft 18 kts 265°
2026-04-24 07:23 48.99954 2.57272 362 ft 19 kts 265°
2026-04-24 07:23 48.99944 2.57066 367 ft 20 kts 265°
2026-04-24 07:24 48.99933 2.56851 360 ft 21 kts 265°
2026-04-24 07:24 48.99922 2.56626 362 ft 22 kts 266°
2026-04-24 07:24 48.99910 2.56392 365 ft 23 kts 266°
2026-04-24 07:24 48.99898 2.56150 366 ft 23 kts 265°
2026-04-24 07:25 48.99898 2.55902 363 ft 24 kts 282°
2026-04-24 07:25 48.99927 2.55761 365 ft 17 kts 298°
2026-04-24 07:25 48.99985 2.55545 366 ft 17 kts 274°
2026-04-24 07:25 48.99984 2.55421 366 ft 18 kts 265°
2026-04-24 07:26 48.99971 2.55174 363 ft 18 kts 265°
2026-04-24 07:26 48.99964 2.55047 365 ft 18 kts 265°
2026-04-24 07:26 48.99950 2.54887 362 ft 14 kts 251°
2026-04-24 07:26 48.99870 2.54826 365 ft 14 kts 180°
2026-04-24 07:27 48.99772 2.54854 369 ft 15 kts 150°
2026-04-24 07:27 48.99709 2.54980 369 ft 15 kts 118°
2026-04-24 07:27 48.99671 2.55102 369 ft 0 kts 116°
2026-04-24 07:28 48.99663 2.55125 369 ft 9 kts 116°
2026-04-24 07:29 48.99632 2.55223 369 ft 11 kts 116°
2026-04-24 07:29 48.99595 2.55336 368 ft 14 kts 115°
2026-04-24 07:29 48.99584 2.55494 364 ft 20 kts 88°
2026-04-24 07:29 48.99608 2.55970 362 ft 74 kts 86°
2026-04-24 07:30 48.99665 2.57036 362 ft 127 kts 85°
2026-04-24 07:30 48.99736 2.58616 374 ft 170 kts 85°
2026-04-24 07:30 48.99817 2.60421 977 ft 165 kts 83°
2026-04-24 07:30 48.99916 2.62093 1768 ft 154 kts 85°
2026-04-24 07:31 49.00009 2.63672 2245 ft 151 kts 86°
2026-04-24 07:31 49.00097 2.65288 2628 ft 155 kts 85°
2026-04-24 07:31 49.00185 2.66931 3091 ft 156 kts 85°
2026-04-24 07:31 49.00272 2.68576 3477 ft 159 kts 85°
2026-04-24 07:32 49.00367 2.70336 3708 ft 174 kts 85°
2026-04-24 07:32 49.00473 2.72253 3943 ft 189 kts 84°
2026-04-24 07:32 49.00584 2.74347 4166 ft 208 kts 85°
2026-04-24 07:32 49.00671 2.76634 4439 ft 225 kts 90°
2026-04-24 07:33 49.00533 2.79087 4759 ft 240 kts 97°
2026-04-24 07:33 49.00284 2.81635 5246 ft 246 kts 98°
2026-04-24 07:33 49.00016 2.84239 5789 ft 250 kts 98°
2026-04-24 07:33 48.99751 2.86879 6331 ft 255 kts 98°
2026-04-24 07:34 48.99480 2.89563 6868 ft 258 kts 98°
2026-04-24 07:34 48.99206 2.92288 7392 ft 262 kts 98°
2026-04-24 07:34 48.98923 2.95053 7892 ft 266 kts 98°
2026-04-24 07:34 48.98367 2.97761 8413 ft 272 kts 116°
2026-04-24 07:35 48.97138 2.99969 8882 ft 280 kts 142°
2026-04-24 07:35 48.95333 3.01142 9383 ft 289 kts 169°
2026-04-24 07:35 48.93320 3.00933 9904 ft 296 kts 197°
2026-04-24 07:35 48.91563 2.99300 10369 ft 302 kts 225°
2026-04-24 07:36 48.90447 2.96551 10618 ft 314 kts 251°
2026-04-24 07:36 48.89836 2.93355 10865 ft 326 kts 256°
2026-04-24 07:36 48.89272 2.89949 11102 ft 338 kts 256°
2026-04-24 07:36 48.88675 2.86429 11346 ft 349 kts 256°
2026-04-24 07:37 48.88041 2.82806 11592 ft 360 kts 255°
2026-04-24 07:37 48.87374 2.79073 11818 ft 371 kts 255°
2026-04-24 07:37 48.86683 2.75244 12142 ft 377 kts 255°
2026-04-24 07:37 48.85984 2.71391 12552 ft 381 kts 255°
2026-04-24 07:38 48.85275 2.67497 13017 ft 383 kts 255°
2026-04-24 07:38 48.84563 2.63599 13487 ft 384 kts 254°
2026-04-24 07:38 48.83842 2.59671 13886 ft 388 kts 254°
2026-04-24 07:38 48.83116 2.55721 14297 ft 390 kts 254°
2026-04-24 07:39 48.82391 2.51793 14721 ft 391 kts 253°
2026-04-24 07:39 48.81655 2.47806 15134 ft 392 kts 253°
2026-04-24 07:39 48.80915 2.43805 15518 ft 395 kts 253°
2026-04-24 07:39 48.80304 2.39727 15901 ft 398 kts 261°
2026-04-24 07:40 48.80099 2.35531 16309 ft 400 kts 268°
2026-04-24 07:40 48.80092 2.31287 16691 ft 402 kts 270°
2026-04-24 07:40 48.80110 2.27029 17070 ft 405 kts 270°
2026-04-24 07:40 48.80125 2.22788 17456 ft 407 kts 269°
2026-04-24 07:41 48.80134 2.18480 17842 ft 409 kts 269°
2026-04-24 07:41 48.80140 2.14155 18222 ft 411 kts 269°
2026-04-24 07:41 48.80141 2.09799 18597 ft 414 kts 269°
2026-04-24 07:41 48.80141 2.05426 18924 ft 416 kts 269°
2026-04-24 07:42 48.80138 2.01030 19248 ft 418 kts 268°
2026-04-24 07:42 48.80134 1.96607 19578 ft 420 kts 268°
2026-04-24 07:42 48.80128 1.92165 19905 ft 422 kts 268°
2026-04-24 07:42 48.80119 1.87700 20226 ft 423 kts 268°
2026-04-24 07:43 48.80110 1.83235 20553 ft 425 kts 268°
2026-04-24 07:43 48.80098 1.78730 20868 ft 427 kts 268°
2026-04-24 07:43 48.80085 1.74205 21183 ft 429 kts 267°
2026-04-24 07:43 48.80070 1.69688 21548 ft 429 kts 267°
2026-04-24 07:44 48.80052 1.65156 21857 ft 431 kts 267°
2026-04-24 07:44 48.80033 1.60609 22154 ft 432 kts 267°
2026-04-24 07:44 48.80012 1.56036 22463 ft 434 kts 266°
2026-04-24 07:44 48.79990 1.51500 22762 ft 436 kts 266°
2026-04-24 07:45 48.79965 1.46903 23049 ft 437 kts 266°
2026-04-24 07:45 48.79939 1.42273 23341 ft 439 kts 266°
2026-04-24 07:45 48.79910 1.37617 23628 ft 441 kts 266°
2026-04-24 07:45 48.79879 1.32956 23905 ft 442 kts 266°
2026-04-24 07:46 48.79845 1.28283 24200 ft 442 kts 266°
2026-04-24 07:46 48.79812 1.23678 24552 ft 441 kts 267°
2026-04-24 07:46 48.79777 1.19027 24789 ft 443 kts 267°
2026-04-24 07:46 48.79739 1.14347 25013 ft 445 kts 267°
2026-04-24 07:47 48.79700 1.09643 25259 ft 446 kts 267°
2026-04-24 07:47 48.79657 1.04934 25504 ft 447 kts 267°
2026-04-24 07:47 48.79613 1.00201 25751 ft 449 kts 267°
2026-04-24 07:47 48.79566 0.95462 25996 ft 450 kts 268°
2026-04-24 07:48 48.79518 0.90706 26242 ft 452 kts 268°
2026-04-24 07:48 48.79467 0.85930 26511 ft 453 kts 268°
2026-04-24 07:48 48.79414 0.81157 26871 ft 452 kts 268°
2026-04-24 07:48 48.79361 0.76446 27132 ft 453 kts 268°
2026-04-24 07:49 48.79304 0.71656 27360 ft 455 kts 268°
2026-04-24 07:49 48.79245 0.66839 27595 ft 457 kts 268°
2026-04-24 07:49 48.79144 0.62019 27882 ft 458 kts 265°
2026-04-24 07:49 48.78692 0.57253 28157 ft 459 kts 257°
2026-04-24 07:50 48.77721 0.52631 28345 ft 461 kts 247°
2026-04-24 07:50 48.76227 0.48323 28579 ft 463 kts 237°
2026-04-24 07:50 48.74311 0.44387 28858 ft 465 kts 232°
2026-04-24 07:50 48.72251 0.40589 29024 ft 469 kts 231°
2026-04-24 07:51 48.70114 0.36821 29229 ft 472 kts 230°
2026-04-24 07:51 48.67950 0.33067 29510 ft 473 kts 230°
2026-04-24 07:51 48.65777 0.29301 29752 ft 475 kts 230°
2026-04-24 07:51 48.63632 0.25567 29933 ft 478 kts 230°
2026-04-24 07:52 48.61448 0.21744 30116 ft 481 kts 231°
2026-04-24 07:52 48.59263 0.17902 30390 ft 482 kts 231°
2026-04-24 07:52 48.57074 0.14045 30637 ft 484 kts 231°
2026-04-24 07:52 48.54890 0.10167 30847 ft 485 kts 231°
2026-04-24 07:53 48.52707 0.06284 31072 ft 486 kts 231°
2026-04-24 07:53 48.50514 0.02382 31304 ft 487 kts 231°
2026-04-24 07:53 48.48316 -0.01520 31508 ft 488 kts 231°
2026-04-24 07:53 48.46121 -0.05409 31843 ft 486 kts 231°
2026-04-24 07:54 48.43922 -0.09296 32115 ft 486 kts 231°
2026-04-24 07:54 48.41728 -0.13165 32378 ft 486 kts 231°
2026-04-24 07:54 48.39559 -0.16989 32583 ft 486 kts 231°
2026-04-24 07:54 48.37361 -0.20852 32878 ft 485 kts 231°
2026-04-24 07:55 48.35170 -0.24699 33187 ft 484 kts 230°
2026-04-24 07:55 48.32974 -0.28539 33445 ft 484 kts 230°
2026-04-24 07:55 48.30765 -0.32361 33740 ft 482 kts 230°
2026-04-24 07:55 48.28561 -0.36152 34015 ft 482 kts 230°
2026-04-24 07:56 48.26349 -0.39944 34254 ft 481 kts 230°
2026-04-24 07:56 48.24148 -0.43715 34528 ft 480 kts 230°
2026-04-24 07:56 48.21947 -0.47483 34696 ft 480 kts 230°
2026-04-24 07:56 48.19748 -0.51251 34936 ft 479 kts 230°
2026-04-24 07:57 48.17580 -0.54965 35138 ft 479 kts 230°
2026-04-24 07:57 48.15376 -0.58734 35191 ft 483 kts 230°
2026-04-24 07:57 48.10928 -0.66320 35184 ft 484 kts 230°
2026-04-24 07:58 48.06480 -0.73891 35183 ft 484 kts 230°
2026-04-24 07:58 48.02021 -0.81454 35184 ft 484 kts 230°
2026-04-24 07:59 47.97589 -0.88953 35184 ft 483 kts 230°
2026-04-24 07:59 47.93143 -0.96453 35186 ft 482 kts 230°
2026-04-24 08:00 47.88703 -1.03921 35190 ft 482 kts 230°
2026-04-24 08:00 47.84257 -1.11376 35183 ft 481 kts 229°
2026-04-24 08:01 47.79798 -1.18834 35181 ft 481 kts 230°
2026-04-24 08:01 47.75338 -1.26272 35177 ft 482 kts 230°
2026-04-24 08:02 47.70904 -1.33649 35173 ft 480 kts 230°
2026-04-24 08:02 47.66460 -1.41021 35174 ft 479 kts 230°
2026-04-24 08:03 47.62008 -1.48384 35162 ft 478 kts 230°
2026-04-24 08:03 47.57553 -1.55737 35163 ft 478 kts 230°
2026-04-24 08:04 47.53128 -1.63030 35156 ft 479 kts 230°
2026-04-24 08:04 47.48670 -1.70359 35146 ft 479 kts 229°
2026-04-24 08:05 47.44216 -1.77659 35160 ft 477 kts 229°
2026-04-24 08:05 47.39765 -1.84935 35147 ft 477 kts 229°
2026-04-24 08:06 47.35196 -1.91946 35128 ft 478 kts 221°
2026-04-24 08:06 47.29741 -1.97580 35135 ft 479 kts 213°
2026-04-24 08:07 47.24050 -2.02705 35149 ft 480 kts 212°
2026-04-24 08:07 47.18325 -2.07742 35153 ft 479 kts 211°
2026-04-24 08:08 47.12634 -2.12768 35161 ft 475 kts 211°
2026-04-24 08:09 47.04181 -2.20260 35130 ft 475 kts 211°
2026-04-24 08:09 46.98497 -2.25290 35127 ft 475 kts 211°
2026-04-24 08:10 46.92826 -2.30295 35123 ft 476 kts 211°
2026-04-24 08:10 46.87137 -2.35302 35121 ft 477 kts 211°
2026-04-24 08:11 46.81475 -2.40282 35123 ft 477 kts 211°
2026-04-24 08:11 46.75777 -2.45278 35130 ft 476 kts 211°
2026-04-24 08:12 46.70140 -2.50205 35128 ft 474 kts 211°
2026-04-24 08:12 46.64471 -2.55151 35127 ft 475 kts 211°
2026-04-24 08:13 46.58808 -2.60080 35124 ft 475 kts 211°
2026-04-24 08:13 46.54092 -2.64176 35124 ft 474 kts 211°
2026-04-24 08:14 46.47497 -2.69888 35120 ft 474 kts 210°
2026-04-24 08:14 46.42746 -2.73995 35116 ft 474 kts 210°
2026-04-24 08:15 46.37114 -2.78850 35113 ft 474 kts 210°
2026-04-24 08:15 46.31432 -2.83739 35112 ft 473 kts 210°
2026-04-24 08:16 46.25782 -2.88587 35113 ft 472 kts 210°
2026-04-24 08:16 46.20180 -2.93444 35425 ft 469 kts 210°
2026-04-24 08:16 46.17391 -2.95883 35753 ft 466 kts 210°
2026-04-24 08:17 46.14613 -2.98311 35945 ft 467 kts 210°
2026-04-24 08:17 46.11831 -3.00736 36155 ft 466 kts 210°
2026-04-24 08:17 46.09057 -3.03148 36335 ft 466 kts 210°
2026-04-24 08:17 46.06276 -3.05559 36504 ft 467 kts 210°
2026-04-24 08:18 46.03531 -3.07935 36712 ft 466 kts 210°
2026-04-24 08:18 46.00747 -3.10340 36870 ft 466 kts 210°
2026-04-24 08:18 45.97963 -3.12742 37028 ft 466 kts 210°
2026-04-24 08:19 45.92367 -3.17562 37097 ft 471 kts 209°
2026-04-24 08:19 45.86736 -3.22402 37091 ft 471 kts 209°
2026-04-24 08:20 45.81105 -3.27231 37092 ft 471 kts 209°
2026-04-24 08:20 45.75514 -3.32014 37086 ft 471 kts 209°
2026-04-24 08:21 45.69884 -3.36819 37083 ft 471 kts 209°
2026-04-24 08:21 45.64256 -3.41611 37078 ft 471 kts 209°
2026-04-24 08:22 45.58618 -3.46401 37078 ft 471 kts 209°
2026-04-24 08:22 45.52990 -3.51170 37085 ft 471 kts 209°
2026-04-24 08:23 45.47350 -3.55939 37073 ft 471 kts 209°
2026-04-24 08:23 45.41709 -3.60697 37067 ft 471 kts 209°
2026-04-24 08:24 45.36071 -3.65440 37064 ft 471 kts 209°
2026-04-24 08:24 45.30434 -3.70172 37064 ft 470 kts 209°
2026-04-24 08:25 45.24828 -3.74868 37063 ft 470 kts 209°
2026-04-24 08:25 45.19186 -3.79582 37058 ft 470 kts 209°
2026-04-24 08:26 45.13545 -3.84285 37066 ft 470 kts 208°
2026-04-24 08:26 45.07909 -3.88973 37055 ft 468 kts 209°
2026-04-24 08:27 45.02285 -3.93640 37060 ft 468 kts 208°
2026-04-24 08:27 44.96670 -3.98288 37056 ft 468 kts 208°
2026-04-24 08:28 44.91046 -4.02934 37049 ft 467 kts 208°
2026-04-24 08:28 44.85473 -4.07527 37053 ft 466 kts 208°
2026-04-24 08:29 44.79869 -4.12135 37050 ft 466 kts 208°
2026-04-24 08:29 44.74262 -4.16734 37055 ft 466 kts 208°
2026-04-24 08:30 44.68690 -4.21295 37054 ft 466 kts 208°
2026-04-24 08:30 44.63083 -4.25875 37057 ft 466 kts 208°
2026-04-24 08:31 44.57479 -4.30441 37055 ft 466 kts 208°
2026-04-24 08:31 44.51864 -4.35006 37055 ft 465 kts 208°
2026-04-24 08:32 44.46298 -4.39521 37052 ft 464 kts 208°
2026-04-24 08:32 44.40695 -4.44057 37052 ft 464 kts 208°
2026-04-24 08:33 44.35149 -4.48694 37053 ft 464 kts 210°
2026-04-24 08:33 44.29669 -4.53382 37050 ft 464 kts 210°
2026-04-24 08:34 44.24157 -4.58070 37065 ft 464 kts 210°
2026-04-24 08:34 44.18636 -4.62732 37060 ft 464 kts 210°
2026-04-24 08:35 44.13103 -4.67382 37057 ft 464 kts 210°
2026-04-24 08:35 44.07608 -4.71990 37060 ft 464 kts 210°
2026-04-24 08:36 44.02070 -4.76626 37065 ft 464 kts 210°
2026-04-24 08:36 43.96533 -4.81250 37060 ft 464 kts 210°
2026-04-24 08:37 43.90995 -4.85865 37067 ft 464 kts 210°
2026-04-24 08:37 43.85481 -4.90451 37072 ft 463 kts 210°
2026-04-24 08:38 43.79970 -4.95023 37067 ft 463 kts 210°
2026-04-24 08:38 43.74442 -4.99601 37062 ft 462 kts 210°
2026-04-24 08:39 43.68931 -5.04155 37090 ft 461 kts 209°
2026-04-24 08:39 43.63426 -5.08693 37091 ft 460 kts 209°
2026-04-24 08:40 43.57924 -5.13218 37071 ft 460 kts 209°
2026-04-24 08:40 43.52408 -5.17745 37073 ft 461 kts 209°
2026-04-24 08:41 43.46903 -5.22254 37082 ft 460 kts 209°
2026-04-24 08:41 43.41406 -5.26747 37084 ft 460 kts 209°
2026-04-24 08:42 43.35934 -5.31210 37106 ft 459 kts 209°
2026-04-24 08:42 43.30424 -5.35693 37108 ft 458 kts 209°
2026-04-24 08:43 43.24962 -5.40130 37103 ft 454 kts 208°
2026-04-24 08:43 43.19518 -5.44540 37102 ft 454 kts 208°
2026-04-24 08:44 43.14112 -5.48910 37103 ft 454 kts 208°
2026-04-24 08:44 43.08654 -5.53318 37111 ft 454 kts 208°
2026-04-24 08:45 43.03207 -5.57705 37112 ft 453 kts 208°
2026-04-24 08:45 42.97813 -5.62042 37115 ft 453 kts 208°
2026-04-24 08:46 42.92371 -5.66405 37115 ft 453 kts 208°
2026-04-24 08:46 42.86930 -5.70759 37122 ft 453 kts 208°
2026-04-24 08:47 42.81488 -5.75106 37128 ft 453 kts 208°
2026-04-24 08:47 42.76047 -5.79442 37126 ft 453 kts 208°
2026-04-24 08:48 42.70637 -5.83745 37128 ft 453 kts 208°
2026-04-24 08:48 42.65192 -5.88068 37130 ft 453 kts 208°
2026-04-24 08:49 42.59745 -5.92382 37128 ft 453 kts 208°
2026-04-24 08:49 42.54299 -5.96688 37126 ft 453 kts 208°
2026-04-24 08:50 42.48850 -6.00986 37129 ft 453 kts 208°
2026-04-24 08:50 42.43436 -6.05250 37126 ft 453 kts 208°
2026-04-24 08:51 42.37977 -6.09539 37135 ft 453 kts 207°
2026-04-24 08:51 42.32523 -6.13816 37123 ft 453 kts 207°
2026-04-24 08:52 42.27063 -6.18089 37121 ft 453 kts 207°
2026-04-24 08:52 42.21609 -6.22348 37122 ft 453 kts 207°
2026-04-24 08:53 42.16176 -6.26582 37128 ft 453 kts 207°
2026-04-24 08:53 42.10717 -6.30829 37123 ft 453 kts 207°
2026-04-24 08:54 42.05243 -6.35078 37125 ft 453 kts 207°
2026-04-24 08:54 41.99814 -6.39284 37122 ft 453 kts 207°
2026-04-24 08:55 41.94341 -6.43516 37115 ft 454 kts 207°
2026-04-24 08:55 41.88859 -6.47746 37122 ft 454 kts 207°
2026-04-24 08:56 41.83408 -6.51943 37118 ft 454 kts 207°
2026-04-24 08:56 41.77905 -6.56172 37119 ft 454 kts 207°
2026-04-24 08:57 41.72433 -6.60345 37114 ft 454 kts 205°
2026-04-24 08:57 41.66578 -6.63410 37110 ft 451 kts 194°
2026-04-24 08:58 41.60533 -6.65644 37111 ft 450 kts 193°
2026-04-24 08:58 41.54460 -6.67736 37110 ft 451 kts 193°
2026-04-24 08:59 41.48382 -6.69833 37104 ft 451 kts 193°
2026-04-24 08:59 41.42296 -6.71954 37105 ft 451 kts 193°
2026-04-24 09:00 41.36257 -6.74067 37111 ft 451 kts 193°
2026-04-24 09:00 41.30183 -6.76190 37107 ft 452 kts 193°
2026-04-24 09:01 41.24097 -6.78312 37106 ft 452 kts 193°
2026-04-24 09:01 41.19036 -6.80073 37102 ft 452 kts 193°
2026-04-24 09:02 41.12950 -6.82186 37103 ft 452 kts 193°
2026-04-24 09:02 41.06858 -6.84298 37110 ft 452 kts 193°
2026-04-24 09:03 41.00803 -6.86393 37103 ft 453 kts 193°
2026-04-24 09:03 40.94688 -6.88505 37097 ft 454 kts 193°
2026-04-24 09:04 40.88566 -6.90613 37101 ft 455 kts 193°
2026-04-24 09:04 40.82431 -6.92724 37102 ft 456 kts 193°
2026-04-24 09:05 40.76323 -6.94821 37106 ft 456 kts 193°
2026-04-24 09:05 40.70171 -6.96929 37105 ft 456 kts 193°
2026-04-24 09:06 40.64031 -6.99029 37103 ft 456 kts 193°
2026-04-24 09:06 40.57877 -7.01130 37107 ft 456 kts 193°
2026-04-24 09:07 40.51765 -7.03213 37106 ft 456 kts 193°
2026-04-24 09:07 40.42538 -7.06349 37107 ft 456 kts 193°
2026-04-24 09:08 40.36394 -7.08432 37109 ft 456 kts 193°
2026-04-24 09:08 40.30237 -7.10516 37108 ft 456 kts 193°
2026-04-24 09:09 40.24088 -7.12613 37108 ft 456 kts 193°
2026-04-24 09:09 40.17935 -7.14744 37108 ft 457 kts 193°
2026-04-24 09:10 40.11825 -7.16858 37112 ft 457 kts 193°
2026-04-24 09:10 40.05667 -7.18980 37110 ft 457 kts 193°
2026-04-24 09:11 39.99500 -7.21096 37109 ft 457 kts 193°
2026-04-24 09:11 39.93336 -7.23208 37111 ft 459 kts 194°
2026-04-24 09:12 39.87140 -7.25326 37110 ft 460 kts 194°
2026-04-24 09:12 39.80942 -7.27442 37111 ft 461 kts 194°
2026-04-24 09:13 39.74774 -7.29543 37112 ft 461 kts 194°
2026-04-24 09:13 39.68565 -7.31654 37116 ft 461 kts 194°
2026-04-24 09:14 39.62353 -7.33763 37113 ft 461 kts 194°
2026-04-24 09:14 39.56140 -7.35868 37117 ft 461 kts 194°
2026-04-24 09:15 39.49916 -7.37972 37117 ft 462 kts 194°
2026-04-24 09:15 39.43729 -7.40061 37115 ft 462 kts 194°
2026-04-24 09:16 39.37508 -7.42157 37117 ft 462 kts 194°
2026-04-24 09:16 39.31281 -7.44250 37119 ft 463 kts 194°
2026-04-24 09:17 39.25029 -7.46349 37120 ft 464 kts 194°
2026-04-24 09:17 39.18774 -7.48445 37121 ft 464 kts 194°
2026-04-24 09:18 39.12567 -7.50521 37121 ft 464 kts 194°
2026-04-24 09:18 39.06292 -7.52503 37122 ft 464 kts 191°
2026-04-24 09:19 38.99953 -7.54138 37121 ft 464 kts 191°
2026-04-24 09:19 38.93596 -7.55740 37122 ft 464 kts 191°
2026-04-24 09:20 38.87300 -7.57377 37123 ft 464 kts 191°
2026-04-24 09:20 38.80949 -7.59057 37121 ft 465 kts 191°
2026-04-24 09:21 38.74641 -7.60728 37129 ft 466 kts 191°
2026-04-24 09:21 38.68242 -7.62419 37126 ft 469 kts 191°
2026-04-24 09:22 38.61841 -7.64107 37126 ft 470 kts 191°
2026-04-24 09:22 38.55423 -7.65795 37126 ft 471 kts 191°
2026-04-24 09:23 38.49044 -7.67469 37126 ft 471 kts 191°
2026-04-24 09:23 38.42610 -7.69155 37123 ft 471 kts 191°
2026-04-24 09:24 38.36187 -7.70835 37122 ft 471 kts 191°
2026-04-24 09:24 38.29746 -7.72516 37119 ft 472 kts 191°
2026-04-24 09:25 38.23356 -7.74182 37127 ft 472 kts 191°
2026-04-24 09:25 38.16923 -7.75856 37126 ft 472 kts 191°
2026-04-24 09:26 38.10483 -7.77528 37126 ft 472 kts 191°
2026-04-24 09:26 38.04033 -7.79200 37129 ft 472 kts 191°
2026-04-24 09:27 37.97593 -7.80866 37127 ft 472 kts 191°
2026-04-24 09:27 37.91185 -7.82520 37127 ft 472 kts 192°
2026-04-24 09:28 37.84719 -7.84188 37126 ft 475 kts 192°
2026-04-24 09:28 37.78227 -7.85859 37120 ft 475 kts 192°
2026-04-24 09:29 37.71740 -7.87525 37128 ft 475 kts 192°
2026-04-24 09:29 37.65251 -7.89189 37130 ft 476 kts 192°
2026-04-24 09:30 37.58786 -7.90844 37131 ft 476 kts 192°
2026-04-24 09:30 37.52288 -7.92504 37130 ft 476 kts 192°
2026-04-24 09:31 37.45796 -7.94160 37127 ft 476 kts 192°
2026-04-24 09:31 37.39319 -7.95809 37121 ft 477 kts 192°
2026-04-24 09:32 37.32803 -7.97465 37123 ft 477 kts 192°
2026-04-24 09:32 37.26275 -7.99122 37114 ft 477 kts 192°
2026-04-24 09:33 37.19761 -8.00772 37108 ft 477 kts 192°
2026-04-24 09:33 37.13268 -8.02413 37104 ft 479 kts 192°
2026-04-24 09:34 37.06716 -8.04067 37100 ft 480 kts 192°
2026-04-24 09:34 37.00170 -8.05716 37103 ft 480 kts 192°
2026-04-24 09:35 36.93609 -8.07366 37106 ft 480 kts 192°
2026-04-24 09:35 36.87059 -8.09011 37110 ft 482 kts 192°
2026-04-24 09:36 36.80476 -8.10661 37110 ft 482 kts 192°
2026-04-24 09:36 36.73886 -8.12309 37115 ft 482 kts 192°
2026-04-24 09:37 36.67295 -8.13955 37117 ft 483 kts 193°
2026-04-24 09:37 36.60729 -8.15592 37118 ft 484 kts 193°
2026-04-24 09:38 36.54121 -8.17237 37118 ft 484 kts 193°
2026-04-24 09:38 36.47501 -8.18882 37118 ft 484 kts 193°
2026-04-24 09:39 36.40881 -8.20522 37122 ft 485 kts 193°
2026-04-24 09:39 36.34287 -8.22155 37122 ft 486 kts 193°
2026-04-24 09:40 36.27640 -8.23799 37119 ft 486 kts 193°
2026-04-24 09:40 36.21000 -8.25437 37111 ft 486 kts 193°
2026-04-24 09:41 36.14384 -8.27066 37122 ft 487 kts 193°
2026-04-24 09:41 36.07709 -8.28707 37122 ft 488 kts 193°
2026-04-24 09:42 36.01087 -8.30333 37121 ft 488 kts 193°
2026-04-24 09:42 35.94426 -8.31991 37118 ft 487 kts 195°
2026-04-24 09:43 35.87846 -8.34046 37124 ft 487 kts 197°
2026-04-24 09:43 35.81274 -8.36240 37128 ft 491 kts 198°
2026-04-24 09:44 35.74684 -8.38387 37127 ft 493 kts 197°
2026-04-24 09:44 35.68036 -8.40500 37127 ft 493 kts 197°
2026-04-24 09:45 35.61365 -8.42601 37130 ft 493 kts 197°
2026-04-24 09:45 35.54715 -8.44692 37130 ft 493 kts 197°
2026-04-24 09:46 35.48105 -8.46769 37129 ft 493 kts 197°
2026-04-24 09:46 35.41454 -8.48856 37129 ft 493 kts 197°
2026-04-24 09:47 35.35923 -8.50590 37132 ft 493 kts 197°
2026-04-24 09:47 35.29273 -8.52672 37135 ft 493 kts 197°
2026-04-24 09:48 35.22630 -8.54748 37135 ft 493 kts 197°
2026-04-24 09:48 35.15981 -8.56821 37138 ft 493 kts 198°
2026-04-24 09:49 35.09371 -8.58879 37139 ft 493 kts 198°
2026-04-24 09:49 35.02714 -8.60949 37136 ft 493 kts 198°
2026-04-24 09:50 34.96073 -8.63010 37136 ft 493 kts 198°
2026-04-24 09:50 34.89410 -8.65073 37136 ft 493 kts 198°
2026-04-24 09:51 34.82797 -8.67118 37136 ft 493 kts 198°
2026-04-24 09:51 34.76146 -8.69173 37140 ft 493 kts 198°
2026-04-24 09:52 34.69492 -8.71224 37139 ft 493 kts 198°
2026-04-24 09:52 34.62819 -8.73273 37141 ft 497 kts 199°
2026-04-24 09:53 34.56071 -8.75351 37141 ft 501 kts 199°
2026-04-24 09:53 34.49317 -8.77423 37140 ft 500 kts 199°
2026-04-24 09:54 34.42566 -8.79489 37141 ft 500 kts 199°
2026-04-24 09:54 34.35851 -8.81532 37142 ft 500 kts 200°
2026-04-24 09:55 34.29091 -8.83583 37142 ft 500 kts 200°
2026-04-24 09:55 34.22332 -8.85631 37143 ft 501 kts 200°
2026-04-24 09:56 34.15566 -8.87678 37140 ft 501 kts 200°
2026-04-24 09:56 34.08810 -8.89719 37140 ft 500 kts 200°
2026-04-24 09:57 34.02108 -8.91741 37143 ft 499 kts 200°
2026-04-24 09:57 33.95371 -8.93770 37139 ft 499 kts 200°
2026-04-24 09:58 33.88624 -8.95799 37106 ft 499 kts 200°
2026-04-24 09:58 33.81866 -8.97827 37128 ft 498 kts 200°
2026-04-24 09:59 33.75136 -8.99844 37150 ft 498 kts 200°
2026-04-24 09:59 33.68448 -9.01846 37150 ft 498 kts 200°
2026-04-24 10:00 33.61714 -9.03861 37112 ft 498 kts 201°
2026-04-24 10:00 33.54984 -9.05867 37143 ft 496 kts 201°
2026-04-24 10:01 33.48272 -9.07866 37140 ft 496 kts 201°
2026-04-24 10:01 33.41601 -9.09852 37140 ft 497 kts 201°
2026-04-24 10:02 33.34866 -9.11855 37123 ft 499 kts 201°
2026-04-24 10:02 33.28126 -9.13851 37143 ft 498 kts 201°
2026-04-24 10:03 33.21390 -9.15844 37143 ft 497 kts 201°
2026-04-24 10:03 33.14716 -9.17818 37143 ft 497 kts 201°
2026-04-24 10:04 33.08006 -9.19813 37143 ft 497 kts 201°
2026-04-24 10:04 33.01277 -9.21809 37143 ft 497 kts 201°
2026-04-24 10:05 32.94543 -9.23802 37140 ft 497 kts 201°
2026-04-24 10:05 32.87857 -9.25779 37140 ft 497 kts 201°
2026-04-24 10:06 32.77765 -9.28756 37136 ft 496 kts 201°
2026-04-24 10:07 32.71068 -9.30726 37138 ft 495 kts 201°
2026-04-24 10:07 32.64426 -9.32679 37133 ft 495 kts 201°
2026-04-24 10:08 32.57733 -9.34645 37127 ft 495 kts 201°
2026-04-24 10:08 32.51051 -9.36604 37129 ft 493 kts 201°
2026-04-24 10:09 32.44401 -9.38546 37121 ft 490 kts 202°
2026-04-24 10:09 32.37790 -9.40479 37133 ft 489 kts 202°
2026-04-24 10:10 32.31215 -9.42400 37120 ft 489 kts 202°
2026-04-24 10:10 32.24596 -9.44329 37099 ft 489 kts 202°
2026-04-24 10:11 32.18011 -9.46243 37183 ft 487 kts 202°
2026-04-24 10:11 32.14723 -9.47198 37391 ft 486 kts 202°
2026-04-24 10:11 32.11437 -9.48152 37644 ft 484 kts 201°
2026-04-24 10:11 32.08170 -9.49099 37915 ft 482 kts 201°
2026-04-24 10:12 32.04920 -9.50040 38143 ft 481 kts 201°
2026-04-24 10:12 32.01666 -9.50983 38342 ft 480 kts 201°
2026-04-24 10:12 31.98416 -9.51925 38499 ft 479 kts 201°
2026-04-24 10:12 31.95219 -9.52850 38696 ft 478 kts 201°
2026-04-24 10:13 31.91980 -9.53787 38856 ft 477 kts 201°
2026-04-24 10:13 31.88757 -9.54719 38968 ft 477 kts 201°
2026-04-24 10:13 31.85529 -9.55652 39057 ft 478 kts 201°
2026-04-24 10:14 31.79044 -9.57527 39094 ft 481 kts 201°
2026-04-24 10:14 31.72565 -9.59393 39091 ft 481 kts 201°
2026-04-24 10:15 31.66058 -9.61263 39081 ft 481 kts 201°
2026-04-24 10:15 31.59550 -9.63130 39073 ft 481 kts 201°
2026-04-24 10:16 31.53046 -9.64994 39074 ft 481 kts 201°
2026-04-24 10:16 31.46582 -9.66844 39076 ft 481 kts 201°
2026-04-24 10:17 31.39892 -9.67921 39066 ft 495 kts 186°
2026-04-24 10:17 31.32962 -9.66815 39076 ft 507 kts 174°
2026-04-24 10:18 31.26058 -9.64906 39069 ft 510 kts 172°
2026-04-24 10:18 31.19197 -9.62901 39061 ft 510 kts 172°
2026-04-24 10:19 31.12307 -9.60934 39050 ft 509 kts 173°
2026-04-24 10:19 31.05405 -9.59012 39039 ft 508 kts 173°
2026-04-24 10:20 30.98563 -9.57079 39029 ft 509 kts 172°
2026-04-24 10:20 30.91693 -9.55098 39026 ft 508 kts 172°
2026-04-24 10:21 30.84815 -9.53119 39007 ft 509 kts 172°
2026-04-24 10:21 30.77926 -9.51143 39003 ft 509 kts 172°
2026-04-24 10:22 30.71088 -9.49188 39005 ft 509 kts 172°
2026-04-24 10:22 30.64206 -9.47256 39000 ft 508 kts 173°
2026-04-24 10:23 30.57332 -9.45345 39004 ft 508 kts 173°
2026-04-24 10:23 30.50453 -9.43430 39018 ft 508 kts 173°
2026-04-24 10:24 30.43579 -9.41516 39017 ft 508 kts 173°
2026-04-24 10:24 30.36734 -9.39613 39020 ft 508 kts 173°
2026-04-24 10:25 30.29838 -9.38176 39019 ft 500 kts 180°
2026-04-24 10:25 30.22908 -9.37427 39009 ft 499 kts 182°
2026-04-24 10:26 30.15987 -9.36796 39011 ft 499 kts 182°
2026-04-24 10:26 30.09095 -9.36175 39009 ft 499 kts 182°
2026-04-24 10:27 30.02166 -9.35536 39014 ft 499 kts 182°
2026-04-24 10:27 29.95245 -9.34890 39010 ft 498 kts 182°
2026-04-24 10:28 29.88337 -9.34245 39014 ft 498 kts 182°
2026-04-24 10:28 29.81421 -9.33601 39020 ft 498 kts 182°
2026-04-24 10:29 29.74552 -9.32962 39014 ft 498 kts 182°
2026-04-24 10:29 29.67633 -9.32319 39011 ft 498 kts 182°
2026-04-24 10:30 29.60722 -9.31679 39009 ft 498 kts 182°
2026-04-24 10:30 29.53845 -9.31042 39010 ft 498 kts 182°
2026-04-24 10:31 29.46928 -9.30402 38993 ft 498 kts 182°
2026-04-24 10:31 29.40010 -9.29763 38999 ft 498 kts 182°
2026-04-24 10:32 29.33126 -9.29128 38982 ft 498 kts 182°
2026-04-24 10:32 29.26214 -9.28492 38967 ft 497 kts 182°
2026-04-24 10:33 29.19312 -9.27857 38958 ft 497 kts 182°
2026-04-24 10:33 29.12414 -9.27223 38955 ft 496 kts 182°
2026-04-24 10:34 29.05571 -9.26595 38953 ft 496 kts 182°
2026-04-24 10:34 28.98676 -9.25964 38947 ft 496 kts 182°
2026-04-24 10:35 28.92950 -9.25445 38914 ft 496 kts 182°
2026-04-24 10:35 28.84943 -9.24723 38939 ft 495 kts 182°
2026-04-24 10:36 28.78072 -9.24104 38937 ft 495 kts 182°
2026-04-24 10:36 28.72353 -9.23589 38926 ft 495 kts 182°
2026-04-24 10:37 28.65490 -9.22971 38930 ft 495 kts 182°
2026-04-24 10:37 28.58629 -9.22354 38929 ft 494 kts 182°
2026-04-24 10:38 28.51780 -9.21739 38938 ft 493 kts 182°
2026-04-24 10:38 28.44931 -9.21126 38946 ft 493 kts 182°
2026-04-24 10:39 28.38132 -9.20518 38950 ft 493 kts 182°
2026-04-24 10:39 28.31286 -9.19906 38962 ft 493 kts 182°
2026-04-24 10:40 28.24453 -9.19296 38964 ft 492 kts 182°
2026-04-24 10:40 28.17611 -9.18686 38958 ft 492 kts 183°
2026-04-24 10:41 28.10775 -9.18078 38975 ft 492 kts 182°
2026-04-24 10:41 28.03975 -9.17474 38962 ft 492 kts 183°
2026-04-24 10:42 27.97140 -9.16867 38981 ft 492 kts 183°
2026-04-24 10:42 27.90295 -9.16259 38978 ft 492 kts 183°
2026-04-24 10:43 27.83503 -9.15657 38981 ft 492 kts 183°
2026-04-24 10:43 27.76675 -9.15052 38981 ft 492 kts 182°
2026-04-24 10:44 27.69839 -9.14102 38979 ft 503 kts 173°
2026-04-24 10:44 27.63274 -9.11021 38983 ft 523 kts 153°
2026-04-24 10:45 27.57398 -9.06155 38984 ft 529 kts 147°
2026-04-24 10:45 27.51647 -9.00934 38983 ft 530 kts 147°
2026-04-24 10:46 27.45894 -8.95716 38981 ft 530 kts 147°
2026-04-24 10:46 27.40144 -8.90578 38983 ft 530 kts 147°
2026-04-24 10:47 27.34357 -8.85450 38985 ft 530 kts 147°
2026-04-24 10:47 27.28555 -8.80322 38986 ft 530 kts 148°
2026-04-24 10:48 27.22749 -8.75194 38983 ft 530 kts 148°
2026-04-24 10:48 27.16984 -8.70107 38974 ft 530 kts 148°
2026-04-24 10:49 27.11177 -8.64990 38984 ft 530 kts 148°
2026-04-24 10:49 27.05371 -8.59880 38980 ft 530 kts 148°
2026-04-24 10:50 26.99568 -8.54782 38979 ft 530 kts 148°
2026-04-24 10:50 26.93765 -8.49688 38984 ft 530 kts 148°
2026-04-24 10:51 26.87995 -8.44631 38983 ft 530 kts 148°
2026-04-24 10:51 26.82187 -8.39548 38984 ft 530 kts 148°
2026-04-24 10:52 26.76369 -8.34462 38979 ft 530 kts 148°
2026-04-24 10:52 26.70544 -8.29378 38966 ft 530 kts 148°
2026-04-24 10:53 26.64765 -8.24339 38979 ft 530 kts 148°
2026-04-24 10:53 26.58937 -8.19265 38970 ft 530 kts 148°
2026-04-24 10:54 26.53141 -8.14226 38976 ft 530 kts 148°
2026-04-24 10:54 26.47318 -8.09170 38980 ft 530 kts 148°
2026-04-24 10:55 26.41483 -8.04110 38977 ft 530 kts 148°
2026-04-24 10:55 26.35643 -7.99052 38980 ft 530 kts 148°
2026-04-24 10:56 26.29810 -7.94007 38978 ft 530 kts 149°
2026-04-24 10:56 26.24014 -7.89000 38977 ft 530 kts 149°
2026-04-24 10:57 26.18182 -7.83970 38974 ft 530 kts 149°
2026-04-24 10:57 26.12339 -7.78936 38974 ft 530 kts 149°
2026-04-24 10:58 26.06499 -7.73911 38974 ft 530 kts 149°
2026-04-24 10:58 26.00655 -7.68889 38974 ft 530 kts 149°
2026-04-24 10:59 25.94842 -7.63901 38973 ft 530 kts 149°
2026-04-24 10:59 25.88998 -7.58892 38970 ft 530 kts 149°
2026-04-24 11:00 25.83146 -7.53883 38973 ft 530 kts 149°
2026-04-24 11:00 25.77292 -7.48878 38974 ft 530 kts 149°
2026-04-24 11:01 25.71482 -7.43917 38964 ft 530 kts 149°
2026-04-24 11:01 25.65630 -7.38927 38967 ft 530 kts 149°
2026-04-24 11:02 25.59781 -7.33946 38964 ft 530 kts 149°
2026-04-24 11:02 25.53929 -7.28968 38960 ft 530 kts 150°
2026-04-24 11:03 25.48069 -7.23991 38963 ft 530 kts 150°
2026-04-24 11:03 25.42218 -7.19028 38963 ft 530 kts 150°
2026-04-24 11:04 25.36393 -7.14093 38955 ft 530 kts 150°
2026-04-24 11:04 25.30523 -7.09126 38955 ft 530 kts 150°
2026-04-24 11:05 25.24654 -7.04166 38955 ft 530 kts 150°
2026-04-24 11:05 25.18826 -6.99247 38950 ft 530 kts 150°
2026-04-24 11:06 25.12953 -6.94296 38943 ft 530 kts 150°
2026-04-24 11:06 25.07080 -6.89352 38946 ft 530 kts 150°
2026-04-24 11:07 24.98305 -6.81975 38942 ft 531 kts 150°
2026-04-24 11:07 24.92413 -6.77030 38941 ft 531 kts 150°
2026-04-24 11:08 24.86535 -6.72102 38941 ft 531 kts 150°
2026-04-24 11:08 24.80651 -6.67174 38932 ft 531 kts 150°
2026-04-24 11:09 24.74811 -6.62290 38936 ft 531 kts 150°
2026-04-24 11:09 24.68918 -6.57368 38935 ft 531 kts 150°
2026-04-24 11:10 24.63028 -6.52454 38930 ft 531 kts 150°
2026-04-24 11:10 24.57172 -6.47575 38931 ft 531 kts 150°
2026-04-24 11:11 24.51289 -6.42678 38928 ft 530 kts 151°
2026-04-24 11:11 24.45394 -6.37778 38925 ft 530 kts 151°
2026-04-24 11:12 24.39505 -6.32889 38922 ft 530 kts 151°
2026-04-24 11:12 24.33610 -6.28000 38922 ft 530 kts 151°
2026-04-24 11:13 24.27765 -6.23159 38916 ft 530 kts 151°
2026-04-24 11:13 24.21863 -6.18277 38919 ft 531 kts 151°
2026-04-24 11:14 24.15970 -6.13404 38921 ft 530 kts 151°
2026-04-24 11:14 24.10072 -6.08535 38899 ft 530 kts 151°
2026-04-24 11:15 24.04168 -6.03672 38907 ft 532 kts 151°
2026-04-24 11:15 23.98281 -5.98827 38906 ft 532 kts 151°
2026-04-24 11:16 23.92359 -5.93956 38897 ft 532 kts 151°
2026-04-24 11:16 23.86442 -5.89094 38899 ft 532 kts 151°
2026-04-24 11:17 23.80533 -5.84246 38896 ft 532 kts 151°
2026-04-24 11:17 23.74606 -5.79389 38891 ft 532 kts 151°
2026-04-24 11:18 23.68717 -5.74568 38892 ft 532 kts 151°
2026-04-24 11:18 23.62787 -5.69719 38877 ft 531 kts 151°
2026-04-24 11:19 23.56866 -5.64883 38889 ft 531 kts 151°
2026-04-24 11:19 23.50980 -5.60082 38887 ft 531 kts 151°
2026-04-24 11:20 23.45054 -5.55253 38887 ft 531 kts 151°
2026-04-24 11:20 23.39129 -5.50431 38883 ft 531 kts 151°
2026-04-24 11:21 23.33247 -5.45649 38847 ft 531 kts 151°
2026-04-24 11:21 23.27322 -5.40838 38884 ft 531 kts 151°
2026-04-24 11:22 23.21395 -5.36031 38881 ft 531 kts 151°
2026-04-24 11:22 23.15465 -5.31226 38878 ft 531 kts 151°
2026-04-24 11:23 23.09529 -5.26422 38871 ft 531 kts 151°
2026-04-24 11:23 23.03633 -5.21656 38872 ft 531 kts 151°
2026-04-24 11:24 22.97699 -5.16865 38866 ft 531 kts 152°
2026-04-24 11:24 22.92756 -5.12878 38869 ft 531 kts 152°
2026-04-24 11:25 22.86812 -5.08088 38865 ft 531 kts 152°
2026-04-24 11:25 22.80875 -5.03310 38863 ft 531 kts 152°
2026-04-24 11:26 22.74972 -4.98563 38860 ft 531 kts 152°
2026-04-24 11:26 22.69041 -4.93799 38839 ft 530 kts 152°
2026-04-24 11:27 22.63092 -4.89026 38860 ft 530 kts 152°
2026-04-24 11:27 22.57173 -4.84283 38857 ft 530 kts 152°
2026-04-24 11:28 22.51277 -4.79565 38857 ft 530 kts 152°
2026-04-24 11:28 22.45313 -4.74796 38857 ft 530 kts 152°
2026-04-24 11:29 22.39421 -4.70090 38849 ft 530 kts 152°
2026-04-24 11:29 22.33489 -4.65357 38855 ft 529 kts 152°
2026-04-24 11:30 22.27560 -4.60630 38856 ft 529 kts 152°
2026-04-24 11:30 22.21627 -4.55907 38856 ft 529 kts 152°
2026-04-24 11:31 22.15733 -4.51220 38851 ft 529 kts 152°
2026-04-24 11:31 22.09794 -4.46502 38850 ft 529 kts 152°
2026-04-24 11:32 22.03858 -4.41791 38843 ft 529 kts 152°
2026-04-24 11:32 21.97911 -4.37076 38851 ft 529 kts 152°
2026-04-24 11:33 21.91974 -4.32374 38849 ft 529 kts 152°
2026-04-24 11:33 21.86080 -4.27711 38849 ft 529 kts 152°
2026-04-24 11:34 21.80144 -4.23021 38849 ft 529 kts 152°
2026-04-24 11:34 21.74206 -4.18333 38834 ft 529 kts 152°
2026-04-24 11:35 21.68277 -4.13657 38845 ft 527 kts 152°
2026-04-24 11:35 21.62394 -4.09021 38846 ft 527 kts 152°
2026-04-24 11:36 21.56473 -4.04362 38843 ft 527 kts 152°
2026-04-24 11:36 21.50556 -3.99711 38843 ft 527 kts 152°
2026-04-24 11:37 21.44627 -3.95055 38840 ft 527 kts 152°
2026-04-24 11:37 21.38748 -3.90443 38840 ft 527 kts 152°
2026-04-24 11:38 21.32817 -3.85795 38843 ft 527 kts 152°
2026-04-24 11:38 21.26894 -3.81158 38841 ft 527 kts 152°
2026-04-24 11:39 21.20968 -3.76524 38843 ft 527 kts 152°
2026-04-24 11:39 21.15041 -3.71895 38843 ft 527 kts 152°
2026-04-24 11:40 21.09148 -3.67296 38822 ft 526 kts 152°
2026-04-24 11:40 21.03238 -3.62686 38842 ft 524 kts 152°
2026-04-24 11:41 20.97338 -3.58091 38840 ft 524 kts 152°
2026-04-24 11:41 20.91444 -3.53507 38837 ft 524 kts 152°
2026-04-24 11:42 20.85544 -3.48921 38840 ft 524 kts 152°
2026-04-24 11:42 20.79645 -3.44341 38837 ft 524 kts 152°
2026-04-24 11:43 20.73786 -3.39795 38833 ft 523 kts 152°
2026-04-24 11:43 20.67906 -3.35237 38834 ft 522 kts 152°
2026-04-24 11:44 20.62026 -3.30684 38834 ft 522 kts 152°
2026-04-24 11:44 20.56138 -3.26131 38834 ft 522 kts 152°
2026-04-24 11:45 20.50291 -3.21613 38834 ft 521 kts 152°
2026-04-24 11:45 20.44414 -3.17076 38837 ft 521 kts 152°
2026-04-24 11:46 20.38543 -3.12548 38834 ft 521 kts 152°
2026-04-24 11:46 20.32662 -3.08017 38834 ft 520 kts 152°
2026-04-24 11:47 20.26782 -3.03491 38835 ft 520 kts 152°
2026-04-24 11:47 20.20906 -2.98973 38834 ft 521 kts 152°
2026-04-24 11:48 20.15060 -2.94481 38829 ft 521 kts 152°
2026-04-24 11:48 20.09184 -2.89971 38822 ft 520 kts 152°
2026-04-24 11:49 20.03321 -2.85473 38830 ft 519 kts 152°
2026-04-24 11:49 19.97461 -2.80983 38829 ft 518 kts 152°
2026-04-24 11:50 19.91600 -2.76498 38825 ft 518 kts 152°
2026-04-24 11:50 19.85788 -2.72054 38827 ft 518 kts 152°
2026-04-24 11:51 19.79915 -2.67567 38827 ft 518 kts 152°
2026-04-24 11:51 19.74057 -2.63096 38817 ft 516 kts 152°
2026-04-24 11:52 19.68264 -2.58676 38821 ft 515 kts 152°
2026-04-24 11:52 19.62424 -2.54228 38817 ft 514 kts 152°
2026-04-24 11:53 19.56638 -2.49825 38818 ft 514 kts 152°
2026-04-24 11:53 19.50823 -2.45403 38818 ft 514 kts 152°
2026-04-24 11:54 19.45002 -2.40980 38818 ft 514 kts 152°
2026-04-24 11:54 19.39186 -2.36565 38825 ft 513 kts 152°
2026-04-24 11:55 19.33409 -2.32183 38825 ft 513 kts 152°
2026-04-24 11:55 19.27598 -2.27780 38811 ft 513 kts 152°
2026-04-24 11:56 19.21783 -2.23379 38811 ft 514 kts 152°
2026-04-24 11:56 19.15956 -2.18971 38828 ft 514 kts 152°
2026-04-24 11:57 19.10131 -2.14568 38788 ft 514 kts 151°
2026-04-24 11:57 19.04334 -2.10192 38811 ft 514 kts 151°
2026-04-24 11:58 18.98495 -2.05786 38810 ft 514 kts 151°
2026-04-24 11:58 18.92668 -2.01393 38806 ft 514 kts 151°
2026-04-24 11:59 18.86839 -1.97003 38807 ft 514 kts 151°
2026-04-24 11:59 18.81034 -1.92635 38807 ft 514 kts 151°
2026-04-24 12:00 18.75200 -1.88250 38797 ft 515 kts 151°
2026-04-24 12:00 18.69354 -1.83861 38804 ft 516 kts 150°
2026-04-24 12:01 18.63489 -1.79458 38803 ft 517 kts 150°
2026-04-24 12:01 18.57665 -1.75090 38808 ft 517 kts 150°
2026-04-24 12:02 18.51803 -1.70698 38802 ft 517 kts 151°
2026-04-24 12:02 18.45934 -1.66308 38802 ft 517 kts 151°
2026-04-24 12:03 18.40065 -1.61923 38784 ft 517 kts 150°
2026-04-24 12:03 18.34203 -1.57545 38798 ft 517 kts 150°
2026-04-24 12:04 18.28362 -1.53185 38799 ft 517 kts 150°
2026-04-24 12:04 18.22478 -1.48798 38799 ft 518 kts 150°
2026-04-24 12:05 18.16603 -1.44421 38796 ft 518 kts 150°
2026-04-24 12:05 18.10705 -1.40030 38794 ft 518 kts 150°
2026-04-24 12:06 18.04855 -1.35677 38796 ft 518 kts 150°
2026-04-24 12:06 17.98964 -1.31297 38793 ft 518 kts 150°
2026-04-24 12:07 17.93072 -1.26921 38793 ft 518 kts 150°
2026-04-24 12:07 17.87183 -1.22549 38788 ft 518 kts 150°
2026-04-24 12:08 17.81322 -1.18203 38787 ft 518 kts 150°
2026-04-24 12:08 17.75427 -1.13834 38783 ft 518 kts 150°
2026-04-24 12:09 17.69533 -1.09472 38782 ft 517 kts 150°
2026-04-24 12:09 17.63686 -1.05146 38783 ft 517 kts 150°
2026-04-24 12:10 17.57795 -1.00790 38783 ft 517 kts 150°
2026-04-24 12:11 17.49960 -0.95005 38778 ft 517 kts 150°
2026-04-24 12:11 17.44077 -0.90664 38776 ft 517 kts 150°
2026-04-24 12:12 17.38196 -0.86329 38767 ft 517 kts 150°
2026-04-24 12:12 17.31349 -0.81286 38772 ft 517 kts 150°
2026-04-24 12:13 17.26456 -0.77685 38768 ft 516 kts 150°
2026-04-24 12:13 17.20570 -0.73356 38777 ft 517 kts 150°
2026-04-24 12:14 17.14671 -0.69022 38772 ft 517 kts 150°
2026-04-24 12:14 17.08777 -0.64693 38771 ft 517 kts 150°
2026-04-24 12:15 17.02918 -0.60395 38775 ft 517 kts 150°
2026-04-24 12:15 16.97047 -0.56090 38772 ft 515 kts 150°
2026-04-24 12:16 16.91164 -0.51780 38772 ft 515 kts 150°
2026-04-24 12:16 16.85294 -0.47484 38774 ft 515 kts 150°
2026-04-24 12:17 16.79458 -0.43216 38770 ft 515 kts 150°
2026-04-24 12:17 16.73577 -0.38918 38753 ft 515 kts 150°
2026-04-24 12:18 16.67705 -0.34630 38762 ft 515 kts 150°
2026-04-24 12:18 16.61844 -0.30352 38766 ft 514 kts 150°
2026-04-24 12:19 16.56013 -0.26100 38763 ft 514 kts 150°
2026-04-24 12:19 16.50149 -0.21828 38767 ft 514 kts 150°
2026-04-24 12:20 16.44283 -0.17557 38777 ft 514 kts 150°
2026-04-24 12:20 16.38415 -0.13288 38788 ft 514 kts 150°
2026-04-24 12:21 16.32596 -0.09058 38793 ft 513 kts 150°
2026-04-24 12:21 16.26616 -0.05050 38801 ft 506 kts 159°
2026-04-24 12:22 16.20036 -0.02849 38801 ft 490 kts 178°
2026-04-24 12:22 16.13317 -0.02471 38759 ft 484 kts 185°
2026-04-24 12:23 16.06574 -0.02469 38757 ft 483 kts 186°
2026-04-24 12:23 15.99878 -0.02495 38755 ft 483 kts 185°
2026-04-24 12:24 15.93156 -0.02483 38758 ft 483 kts 185°
2026-04-24 12:24 15.86439 -0.02449 38751 ft 483 kts 185°
2026-04-24 12:25 15.79713 -0.02409 38752 ft 483 kts 185°
2026-04-24 12:25 15.73035 -0.02370 38748 ft 482 kts 185°
2026-04-24 12:26 15.66311 -0.02333 38747 ft 482 kts 185°
2026-04-24 12:26 15.59586 -0.02297 38745 ft 483 kts 185°
2026-04-24 12:27 15.52858 -0.02260 38743 ft 483 kts 185°
2026-04-24 12:27 15.46135 -0.02223 38746 ft 483 kts 185°
2026-04-24 12:28 15.39454 -0.02186 38746 ft 483 kts 185°
2026-04-24 12:28 15.32723 -0.02149 38743 ft 483 kts 185°
2026-04-24 12:29 15.25998 -0.02112 38743 ft 483 kts 184°
2026-04-24 12:29 15.19281 -0.02075 38742 ft 482 kts 184°
2026-04-24 12:30 15.12613 -0.02039 38743 ft 482 kts 185°
2026-04-24 12:30 15.05888 -0.02002 38737 ft 482 kts 185°
2026-04-24 12:31 14.99168 -0.01965 38740 ft 482 kts 184°
2026-04-24 12:31 14.92509 -0.01929 38743 ft 482 kts 184°
2026-04-24 12:32 14.85797 -0.01892 38743 ft 481 kts 184°
2026-04-24 12:32 14.79143 -0.01855 38744 ft 481 kts 184°
2026-04-24 12:33 14.72440 -0.01819 38744 ft 481 kts 184°
2026-04-24 12:33 14.65744 -0.01782 38744 ft 481 kts 184°
2026-04-24 12:34 14.59042 -0.01746 38748 ft 481 kts 184°
2026-04-24 12:34 14.52345 -0.01709 38746 ft 481 kts 184°
2026-04-24 12:35 14.45649 -0.01673 38750 ft 481 kts 184°
2026-04-24 12:35 14.38949 -0.01637 38752 ft 481 kts 184°
2026-04-24 12:36 14.32282 -0.01600 38759 ft 481 kts 184°
2026-04-24 12:36 14.25579 -0.01564 38757 ft 481 kts 184°
2026-04-24 12:37 14.18880 -0.01528 38761 ft 481 kts 184°
2026-04-24 12:37 14.12184 -0.01492 38763 ft 481 kts 184°
2026-04-24 12:38 14.05479 -0.01456 38772 ft 481 kts 184°
2026-04-24 12:38 13.98819 -0.01416 38775 ft 482 kts 183°
2026-04-24 12:39 13.88920 0.00832 38785 ft 495 kts 161°
2026-04-24 12:39 13.85775 0.02310 38784 ft 497 kts 159°
2026-04-24 12:40 13.79578 0.05464 38780 ft 496 kts 157°
2026-04-24 12:40 13.73401 0.08665 38796 ft 496 kts 158°
2026-04-24 12:41 13.67262 0.11805 38794 ft 496 kts 158°
2026-04-24 12:41 13.61059 0.14948 38802 ft 495 kts 158°
2026-04-24 12:42 13.54863 0.18079 38797 ft 495 kts 158°
2026-04-24 12:42 13.48712 0.21185 38798 ft 495 kts 158°
2026-04-24 12:43 13.42532 0.24306 38806 ft 494 kts 158°
2026-04-24 12:43 13.36356 0.27425 38804 ft 494 kts 158°
2026-04-24 12:44 13.30187 0.30538 38808 ft 494 kts 158°
2026-04-24 12:44 13.24023 0.33647 38807 ft 494 kts 158°
2026-04-24 12:45 13.17886 0.36739 38813 ft 494 kts 158°
2026-04-24 12:45 13.11713 0.39848 38806 ft 493 kts 157°
2026-04-24 12:46 13.05548 0.42951 38812 ft 493 kts 157°
2026-04-24 12:46 12.99405 0.46043 38815 ft 493 kts 157°
2026-04-24 12:47 12.93242 0.49142 38813 ft 493 kts 157°
2026-04-24 12:47 12.87065 0.52247 38808 ft 493 kts 157°
2026-04-24 12:48 12.80935 0.55326 38813 ft 493 kts 157°
2026-04-24 12:48 12.74770 0.58420 38804 ft 493 kts 157°
2026-04-24 12:49 12.68621 0.61506 38800 ft 491 kts 157°
2026-04-24 12:49 12.62480 0.64586 38799 ft 491 kts 157°
2026-04-24 12:50 12.56338 0.67664 38799 ft 491 kts 157°
2026-04-24 12:50 12.50243 0.70717 38799 ft 491 kts 157°
2026-04-24 12:51 12.44108 0.73789 38797 ft 491 kts 157°
2026-04-24 12:51 12.37971 0.76859 38795 ft 490 kts 156°
2026-04-24 12:52 12.31848 0.79922 38791 ft 488 kts 156°
2026-04-24 12:52 12.25785 0.82953 38789 ft 488 kts 156°
2026-04-24 12:53 12.19683 0.86002 38788 ft 488 kts 156°
2026-04-24 12:53 12.13574 0.89053 38788 ft 488 kts 156°
2026-04-24 12:54 12.07507 0.92081 38783 ft 488 kts 156°
2026-04-24 12:54 12.01393 0.95130 38777 ft 488 kts 156°
2026-04-24 12:55 11.95273 0.98182 38779 ft 489 kts 156°
2026-04-24 12:55 11.89197 1.01210 38774 ft 489 kts 156°
2026-04-24 12:56 11.83084 1.04255 38774 ft 489 kts 156°
2026-04-24 12:56 11.76960 1.07304 38771 ft 489 kts 156°
2026-04-24 12:57 11.70889 1.10326 38765 ft 489 kts 156°
2026-04-24 12:57 11.64766 1.13371 38763 ft 490 kts 156°
2026-04-24 12:58 11.58611 1.16430 38766 ft 493 kts 156°
2026-04-24 12:58 11.52425 1.19503 38766 ft 494 kts 156°
2026-04-24 12:59 11.46240 1.22576 38760 ft 495 kts 156°
2026-04-24 12:59 11.41096 1.25130 38760 ft 494 kts 156°
2026-04-24 13:00 11.34907 1.28202 38761 ft 495 kts 156°
2026-04-24 13:00 11.28708 1.31274 38759 ft 494 kts 156°
2026-04-24 13:01 11.22509 1.34348 38763 ft 495 kts 156°
2026-04-24 13:01 11.16304 1.37422 38760 ft 495 kts 156°
2026-04-24 13:02 11.10140 1.40475 38763 ft 496 kts 156°
2026-04-24 13:02 11.03936 1.43546 38763 ft 495 kts 156°
2026-04-24 13:03 10.97980 1.47107 38764 ft 498 kts 147°
2026-04-24 13:03 10.92381 1.51292 38763 ft 499 kts 145°
2026-04-24 13:04 10.86855 1.55575 38769 ft 499 kts 144°
2026-04-24 13:04 10.81337 1.59855 38771 ft 498 kts 145°
2026-04-24 13:05 10.75844 1.64092 38771 ft 498 kts 145°
2026-04-24 13:05 10.70311 1.68347 38776 ft 498 kts 145°
2026-04-24 13:06 10.64783 1.72594 38777 ft 498 kts 145°
2026-04-24 13:06 10.59252 1.76843 38777 ft 498 kts 145°
2026-04-24 13:07 10.53722 1.81088 38781 ft 498 kts 145°
2026-04-24 13:07 10.48196 1.85329 38774 ft 498 kts 145°
2026-04-24 13:08 10.42702 1.89544 38769 ft 498 kts 145°
2026-04-24 13:08 10.37171 1.93787 38779 ft 497 kts 145°
2026-04-24 13:09 10.28884 2.00137 38777 ft 496 kts 145°
2026-04-24 13:09 10.23396 2.04340 38777 ft 496 kts 145°
2026-04-24 13:10 10.17879 2.08564 38774 ft 496 kts 145°
2026-04-24 13:10 10.12384 2.12769 38776 ft 494 kts 145°
2026-04-24 13:11 10.06886 2.16975 38780 ft 494 kts 145°
2026-04-24 13:11 10.01393 2.21175 38779 ft 494 kts 145°
2026-04-24 13:12 9.95884 2.25385 38782 ft 494 kts 145°
2026-04-24 13:12 9.90382 2.29589 38788 ft 494 kts 145°
2026-04-24 13:13 9.84909 2.33767 38782 ft 494 kts 145°
2026-04-24 13:13 9.79409 2.37965 38784 ft 494 kts 144°
2026-04-24 13:14 9.73914 2.42158 38788 ft 493 kts 144°
2026-04-24 13:14 9.68468 2.46311 38790 ft 493 kts 144°
2026-04-24 13:15 9.62976 2.50498 38793 ft 493 kts 144°
2026-04-24 13:15 9.57497 2.54672 38793 ft 493 kts 145°
2026-04-24 13:16 9.52012 2.58851 38797 ft 493 kts 145°
2026-04-24 13:16 9.46512 2.63038 38801 ft 493 kts 145°
2026-04-24 13:17 9.41074 2.67176 38800 ft 489 kts 144°
2026-04-24 13:17 9.35643 2.71309 38804 ft 487 kts 144°
2026-04-24 13:18 9.30223 2.75430 38807 ft 487 kts 144°
2026-04-24 13:18 9.24800 2.79552 38807 ft 487 kts 144°
2026-04-24 13:19 9.19382 2.83669 38809 ft 487 kts 144°
2026-04-24 13:19 9.13949 2.87796 38810 ft 488 kts 144°
2026-04-24 13:20 9.08555 2.91895 38810 ft 488 kts 144°
2026-04-24 13:20 9.03526 2.96501 38813 ft 488 kts 137°
2026-04-24 13:21 8.98710 3.01345 38812 ft 488 kts 136°
2026-04-24 13:21 8.93938 3.06218 38821 ft 487 kts 136°
2026-04-24 13:22 8.89170 3.11076 38818 ft 485 kts 136°
2026-04-24 13:22 8.84401 3.15917 38818 ft 484 kts 136°
2026-04-24 13:23 8.79644 3.20737 38820 ft 485 kts 136°
2026-04-24 13:23 8.74882 3.25562 38826 ft 485 kts 136°
2026-04-24 13:24 8.70144 3.30358 38826 ft 485 kts 136°
2026-04-24 13:24 8.65388 3.35173 38825 ft 482 kts 136°
2026-04-24 13:25 8.60656 3.39962 38833 ft 481 kts 136°
2026-04-24 13:25 8.55930 3.44743 38830 ft 481 kts 136°
2026-04-24 13:26 8.51200 3.49525 38829 ft 481 kts 136°
2026-04-24 13:26 8.46465 3.54311 38841 ft 481 kts 136°
2026-04-24 13:27 8.41764 3.59062 38841 ft 481 kts 136°
2026-04-24 13:27 8.37033 3.63840 38840 ft 481 kts 136°
2026-04-24 13:28 8.32289 3.68631 38838 ft 481 kts 136°
2026-04-24 13:28 8.27585 3.73378 38840 ft 480 kts 136°
2026-04-24 13:29 8.22854 3.78151 38843 ft 480 kts 136°
2026-04-24 13:29 8.18128 3.82918 38845 ft 479 kts 136°
2026-04-24 13:30 8.13414 3.87671 38850 ft 478 kts 136°
2026-04-24 13:30 8.08730 3.92392 38851 ft 478 kts 136°
2026-04-24 13:31 8.04009 3.97149 38851 ft 478 kts 136°
2026-04-24 13:31 7.99296 4.01896 38854 ft 478 kts 136°
2026-04-24 13:32 7.94615 4.06609 38854 ft 478 kts 135°
2026-04-24 13:32 7.89900 4.11353 38853 ft 478 kts 135°
2026-04-24 13:33 7.85178 4.16106 38865 ft 478 kts 135°
2026-04-24 13:33 7.80463 4.20848 38864 ft 478 kts 135°
2026-04-24 13:34 7.75783 4.25554 38862 ft 478 kts 135°
2026-04-24 13:34 7.71076 4.30285 38864 ft 478 kts 135°
2026-04-24 13:35 7.66364 4.35020 38865 ft 478 kts 135°
2026-04-24 13:35 7.61651 4.39754 38865 ft 478 kts 135°
2026-04-24 13:36 7.56963 4.44461 38868 ft 478 kts 135°
2026-04-24 13:36 7.52253 4.49188 38864 ft 477 kts 135°
2026-04-24 13:37 7.47551 4.53907 38864 ft 477 kts 135°
2026-04-24 13:37 7.42838 4.58635 38864 ft 477 kts 135°
2026-04-24 13:38 7.38159 4.63327 38866 ft 477 kts 135°
2026-04-24 13:38 7.33447 4.68052 38864 ft 477 kts 135°
2026-04-24 13:39 7.28732 4.72778 38866 ft 477 kts 135°
2026-04-24 13:39 7.24025 4.77494 38864 ft 477 kts 135°
2026-04-24 13:40 7.19352 4.82173 38865 ft 477 kts 135°
2026-04-24 13:40 7.14645 4.86887 38865 ft 477 kts 135°
2026-04-24 13:41 7.09924 4.91612 38859 ft 477 kts 135°
2026-04-24 13:41 7.05213 4.96326 38864 ft 477 kts 135°
2026-04-24 13:42 7.00525 5.01016 38860 ft 474 kts 135°
2026-04-24 13:42 6.95877 5.05664 38852 ft 473 kts 135°
2026-04-24 13:43 6.91199 5.10341 38852 ft 473 kts 135°
2026-04-24 13:43 6.86525 5.15013 38850 ft 473 kts 135°
2026-04-24 13:44 6.82638 5.18897 38844 ft 473 kts 135°
2026-04-24 13:44 6.77198 5.24329 38831 ft 473 kts 135°
2026-04-24 13:45 6.73279 5.28243 38831 ft 473 kts 135°
2026-04-24 13:45 6.68627 5.32888 38831 ft 473 kts 135°
2026-04-24 13:46 6.63948 5.37558 38815 ft 473 kts 135°
2026-04-24 13:46 6.59264 5.42232 38815 ft 473 kts 135°
2026-04-24 13:47 6.54612 5.46873 38815 ft 474 kts 135°
2026-04-24 13:47 6.49922 5.51550 38812 ft 474 kts 135°
2026-04-24 13:48 6.45241 5.56217 38812 ft 474 kts 135°
2026-04-24 13:48 6.40587 5.60853 38812 ft 474 kts 134°
2026-04-24 13:49 6.35901 5.65523 38812 ft 474 kts 134°
2026-04-24 13:49 6.31212 5.70194 38812 ft 474 kts 134°
2026-04-24 13:50 6.26550 5.74838 38810 ft 475 kts 135°
2026-04-24 13:50 6.21836 5.79532 38810 ft 476 kts 135°
2026-04-24 13:51 6.17132 5.84213 38810 ft 476 kts 135°
2026-04-24 13:51 6.12422 5.88900 38810 ft 476 kts 135°
2026-04-24 13:52 6.07714 5.93584 38809 ft 476 kts 135°
2026-04-24 13:52 6.02997 5.98275 38813 ft 478 kts 135°
2026-04-24 13:53 5.98290 6.02955 38810 ft 479 kts 135°
2026-04-24 13:53 5.93541 6.07676 38809 ft 480 kts 135°
2026-04-24 13:54 5.88786 6.12403 38809 ft 481 kts 135°
2026-04-24 13:54 5.84055 6.17103 38810 ft 482 kts 135°
2026-04-24 13:55 5.79284 6.21841 38809 ft 481 kts 135°
2026-04-24 13:55 5.74514 6.26577 38804 ft 482 kts 135°
2026-04-24 13:56 5.69774 6.31283 38804 ft 482 kts 135°
2026-04-24 13:56 5.65005 6.36017 38804 ft 479 kts 135°
2026-04-24 13:57 5.60303 6.40683 38801 ft 473 kts 135°
2026-04-24 13:57 5.55625 6.45324 38804 ft 472 kts 135°
2026-04-24 13:58 5.50942 6.49968 38804 ft 473 kts 135°
2026-04-24 13:58 5.46254 6.54616 38807 ft 473 kts 135°
2026-04-24 13:59 5.41601 6.59229 38810 ft 473 kts 135°
2026-04-24 13:59 5.36918 6.63871 38810 ft 473 kts 135°
2026-04-24 14:00 5.32229 6.68518 38813 ft 473 kts 135°
2026-04-24 14:00 5.27538 6.73164 38816 ft 474 kts 135°
2026-04-24 14:01 5.22865 6.77793 38815 ft 475 kts 135°
2026-04-24 14:01 5.18148 6.82464 38815 ft 476 kts 135°
2026-04-24 14:02 5.13433 6.87132 38816 ft 476 kts 135°
2026-04-24 14:02 5.08706 6.91811 38815 ft 477 kts 135°
2026-04-24 14:03 5.03978 6.96490 38815 ft 477 kts 135°
2026-04-24 14:03 4.99278 7.01140 38815 ft 477 kts 135°
2026-04-24 14:04 4.94552 7.05815 38815 ft 477 kts 135°
2026-04-24 14:04 4.89812 7.10502 38811 ft 478 kts 135°
2026-04-24 14:05 4.85061 7.15200 38818 ft 480 kts 135°
2026-04-24 14:05 4.80326 7.19881 38820 ft 480 kts 135°
2026-04-24 14:06 4.75567 7.24585 38823 ft 480 kts 135°
2026-04-24 14:06 4.70802 7.29293 38823 ft 480 kts 135°
2026-04-24 14:07 4.66078 7.33960 38826 ft 480 kts 135°
2026-04-24 14:07 4.61314 7.38666 38826 ft 480 kts 135°
2026-04-24 14:08 4.56544 7.43376 38826 ft 480 kts 135°
2026-04-24 14:08 4.51781 7.48079 38828 ft 480 kts 135°
2026-04-24 14:09 4.47061 7.52739 38823 ft 479 kts 135°
2026-04-24 14:09 4.42310 7.57427 38823 ft 479 kts 135°
2026-04-24 14:10 4.37556 7.62119 38827 ft 480 kts 135°
2026-04-24 14:10 4.32784 7.66826 38826 ft 481 kts 135°
2026-04-24 14:11 4.28037 7.71509 38826 ft 482 kts 135°
2026-04-24 14:12 4.20869 7.78577 38826 ft 482 kts 135°
2026-04-24 14:12 4.16095 7.83284 38826 ft 482 kts 135°
2026-04-24 14:13 4.11309 7.87998 38823 ft 482 kts 135°
2026-04-24 14:13 4.06317 7.92489 38823 ft 482 kts 138°
2026-04-24 14:14 4.01235 7.96816 38823 ft 482 kts 139°
2026-04-24 14:14 3.93600 8.03410 38824 ft 483 kts 139°
2026-04-24 14:15 3.88537 8.07835 38826 ft 483 kts 138°
2026-04-24 14:15 3.83472 8.12271 38826 ft 483 kts 139°
2026-04-24 14:16 3.78434 8.16681 38827 ft 484 kts 138°
2026-04-24 14:17 3.70842 8.23320 38840 ft 482 kts 138°
2026-04-24 14:17 3.63269 8.29943 38840 ft 482 kts 138°
2026-04-24 14:18 3.58249 8.34332 38840 ft 481 kts 138°
2026-04-24 14:18 3.53183 8.38761 38856 ft 485 kts 138°
2026-04-24 14:19 3.48083 8.43219 38857 ft 487 kts 138°
2026-04-24 14:19 3.42980 8.47677 38856 ft 486 kts 138°
2026-04-24 14:20 3.37905 8.52111 38871 ft 487 kts 138°
2026-04-24 14:20 3.32795 8.56571 38869 ft 487 kts 138°
2026-04-24 14:21 3.27683 8.61037 38856 ft 486 kts 138°
2026-04-24 14:21 3.22587 8.65491 38856 ft 487 kts 138°
2026-04-24 14:22 3.17482 8.69949 38855 ft 486 kts 138°
2026-04-24 14:23 3.09868 8.76598 38845 ft 486 kts 139°
2026-04-24 14:23 3.04772 8.81046 38841 ft 486 kts 139°
2026-04-24 14:24 2.99658 8.85507 38829 ft 487 kts 138°
2026-04-24 14:24 2.94568 8.89949 38829 ft 488 kts 138°
2026-04-24 14:25 2.90277 8.93694 38831 ft 489 kts 139°
2026-04-24 14:25 2.84309 8.98902 38824 ft 489 kts 138°
2026-04-24 14:26 2.79179 9.03377 38819 ft 488 kts 139°
2026-04-24 14:26 2.74085 9.07821 38821 ft 489 kts 138°
2026-04-24 14:27 2.68966 9.12286 38830 ft 487 kts 139°
2026-04-24 14:27 2.63871 9.16729 38829 ft 485 kts 139°
2026-04-24 14:28 2.58765 9.21181 38830 ft 488 kts 138°
2026-04-24 14:28 2.53624 9.25664 38832 ft 490 kts 139°
2026-04-24 14:29 2.48490 9.30140 38830 ft 490 kts 139°
2026-04-24 14:29 2.43348 9.34622 38832 ft 490 kts 139°
2026-04-24 14:30 2.39075 9.38346 38831 ft 490 kts 139°
2026-04-24 14:30 2.33058 9.43589 38835 ft 490 kts 138°
2026-04-24 14:31 2.27949 9.48041 38834 ft 489 kts 139°
2026-04-24 14:31 2.22830 9.52502 38832 ft 486 kts 138°
2026-04-24 14:32 2.17749 9.56929 38833 ft 484 kts 139°
2026-04-24 14:32 2.13520 9.60613 38835 ft 484 kts 139°
2026-04-24 14:33 2.07620 9.65753 38831 ft 484 kts 138°
2026-04-24 14:33 2.03382 9.69445 38837 ft 484 kts 138°
2026-04-24 14:34 1.98302 9.73869 38839 ft 484 kts 138°
2026-04-24 14:34 1.93218 9.78288 38836 ft 484 kts 139°
2026-04-24 14:35 1.87560 9.81915 38838 ft 484 kts 154°
2026-04-24 14:35 1.81391 9.84623 38842 ft 482 kts 156°
2026-04-24 14:36 1.75223 9.87134 38839 ft 481 kts 157°
2026-04-24 14:36 1.69022 9.89647 38840 ft 480 kts 157°
2026-04-24 14:37 1.62829 9.92184 38839 ft 480 kts 157°
2026-04-24 14:37 1.56649 9.94730 38840 ft 480 kts 157°
2026-04-24 14:38 1.50463 9.97281 38840 ft 480 kts 157°
2026-04-24 14:38 1.44271 9.99832 38848 ft 481 kts 156°
2026-04-24 14:39 1.38097 10.02375 38848 ft 482 kts 156°
2026-04-24 14:39 1.31891 10.04933 38849 ft 482 kts 156°
2026-04-24 14:40 1.25690 10.07487 38846 ft 482 kts 156°
2026-04-24 14:40 1.19487 10.10042 38851 ft 482 kts 156°
2026-04-24 14:41 1.13271 10.12603 38845 ft 482 kts 156°
2026-04-24 14:41 1.07112 10.15140 38851 ft 480 kts 157°
2026-04-24 14:42 1.00938 10.17682 38851 ft 479 kts 157°
2026-04-24 14:42 0.94766 10.20223 38851 ft 480 kts 157°
2026-04-24 14:43 0.88604 10.22761 38850 ft 477 kts 157°
2026-04-24 14:43 0.82510 10.25271 38852 ft 476 kts 157°
2026-04-24 14:44 0.76381 10.27794 38851 ft 476 kts 157°
2026-04-24 14:44 0.70266 10.30312 38860 ft 473 kts 157°
2026-04-24 14:45 0.64212 10.32805 38858 ft 470 kts 157°
2026-04-24 14:45 0.58149 10.35301 38857 ft 470 kts 157°
2026-04-24 14:46 0.52097 10.37793 38853 ft 470 kts 157°
2026-04-24 14:46 0.46049 10.40283 38857 ft 470 kts 157°
2026-04-24 14:47 0.40033 10.42760 38856 ft 470 kts 157°
2026-04-24 14:47 0.33972 10.45256 38853 ft 470 kts 157°
2026-04-24 14:48 0.27912 10.47750 38850 ft 471 kts 157°
2026-04-24 14:48 0.21887 10.50231 38847 ft 471 kts 157°
2026-04-24 14:49 0.15827 10.52725 38848 ft 471 kts 157°
2026-04-24 14:49 0.09769 10.55220 38846 ft 471 kts 157°
2026-04-24 14:50 0.03699 10.57719 38838 ft 471 kts 157°
2026-04-24 14:50 -0.02372 10.60219 38839 ft 472 kts 157°
2026-04-24 14:51 -0.08447 10.62719 38845 ft 476 kts 157°
2026-04-24 14:51 -0.14589 10.65248 38843 ft 477 kts 157°
2026-04-24 14:52 -0.20738 10.67779 38842 ft 477 kts 157°
2026-04-24 14:52 -0.26841 10.70292 38843 ft 477 kts 157°
2026-04-24 14:53 -0.32984 10.72821 38848 ft 477 kts 157°
2026-04-24 14:53 -0.39124 10.75349 38848 ft 477 kts 157°
2026-04-24 14:54 -0.45268 10.77879 38858 ft 477 kts 157°
2026-04-24 14:54 -0.51366 10.80389 38856 ft 477 kts 157°
2026-04-24 14:55 -0.56471 10.82491 38853 ft 477 kts 157°
2026-04-24 14:55 -0.63658 10.85450 38856 ft 477 kts 157°
2026-04-24 14:56 -0.69667 10.88162 38859 ft 476 kts 149°
2026-04-24 14:56 -0.74851 10.92251 38861 ft 476 kts 133°
2026-04-24 14:57 -0.79164 10.97299 38880 ft 479 kts 128°
2026-04-24 14:57 -0.81221 10.99866 39039 ft 479 kts 128°
2026-04-24 14:57 -0.83289 11.02472 39296 ft 477 kts 128°
2026-04-24 14:57 -0.85345 11.05061 39551 ft 475 kts 128°
2026-04-24 14:58 -0.87402 11.07638 39779 ft 473 kts 128°
2026-04-24 14:58 -0.89463 11.10206 40010 ft 472 kts 128°
2026-04-24 14:58 -0.91518 11.12757 40212 ft 471 kts 128°
2026-04-24 14:58 -0.93572 11.15300 40417 ft 469 kts 128°
2026-04-24 14:59 -0.95621 11.17835 40602 ft 468 kts 128°
2026-04-24 14:59 -0.97664 11.20361 40787 ft 467 kts 128°
2026-04-24 14:59 -0.99709 11.22890 40861 ft 468 kts 128°
2026-04-24 15:00 -1.03793 11.27941 40866 ft 466 kts 128°
2026-04-24 15:00 -1.07849 11.32963 40866 ft 467 kts 129°
2026-04-24 15:01 -1.11945 11.38032 40870 ft 468 kts 129°
2026-04-24 15:01 -1.16038 11.43095 40869 ft 472 kts 128°
2026-04-24 15:02 -1.20184 11.48227 40865 ft 474 kts 128°
2026-04-24 15:02 -1.24328 11.53357 40865 ft 474 kts 128°
2026-04-24 15:03 -1.27772 11.57620 40864 ft 474 kts 128°
2026-04-24 15:03 -1.32597 11.63593 40865 ft 474 kts 128°
2026-04-24 15:04 -1.36738 11.68719 40866 ft 474 kts 128°
2026-04-24 15:04 -1.40884 11.73853 40867 ft 473 kts 128°
2026-04-24 15:05 -1.45018 11.78972 40869 ft 473 kts 128°
2026-04-24 15:05 -1.49151 11.84088 40865 ft 473 kts 128°
2026-04-24 15:06 -1.53250 11.89162 40870 ft 469 kts 128°
2026-04-24 15:06 -1.57339 11.94227 40863 ft 467 kts 128°
2026-04-24 15:07 -1.61424 11.99286 40867 ft 467 kts 128°
2026-04-24 15:07 -1.65508 12.04345 40868 ft 467 kts 128°
2026-04-24 15:08 -1.69595 12.09406 40871 ft 468 kts 128°
2026-04-24 15:08 -1.73660 12.14450 40870 ft 468 kts 128°
2026-04-24 15:09 -1.77749 12.19513 40868 ft 468 kts 128°
2026-04-24 15:09 -1.81838 12.24577 40873 ft 468 kts 128°
2026-04-24 15:10 -1.85929 12.29645 40873 ft 468 kts 128°
2026-04-24 15:10 -1.90012 12.34703 40870 ft 466 kts 128°
2026-04-24 15:11 -1.94087 12.39754 40870 ft 466 kts 128°
2026-04-24 15:11 -1.98159 12.44802 40870 ft 466 kts 128°
2026-04-24 15:12 -2.02230 12.49849 40866 ft 466 kts 128°
2026-04-24 15:12 -2.08322 12.57402 40867 ft 466 kts 128°
2026-04-24 15:13 -2.12394 12.62450 40867 ft 466 kts 128°
2026-04-24 15:13 -2.16445 12.67473 40864 ft 466 kts 128°
2026-04-24 15:14 -2.20516 12.72522 40865 ft 466 kts 128°
2026-04-24 15:14 -2.24412 12.77355 40856 ft 466 kts 128°
2026-04-24 15:15 -2.28481 12.82402 40859 ft 466 kts 128°
2026-04-24 15:15 -2.32530 12.87423 40859 ft 466 kts 128°
2026-04-24 15:16 -2.36598 12.92470 40856 ft 466 kts 128°
2026-04-24 15:16 -2.40670 12.97522 40856 ft 465 kts 128°
2026-04-24 15:17 -2.44710 13.02535 40857 ft 465 kts 128°
2026-04-24 15:17 -2.48775 13.07570 40854 ft 465 kts 128°
2026-04-24 15:18 -2.52870 13.12593 40856 ft 465 kts 128°
2026-04-24 15:18 -2.56303 13.16799 40857 ft 465 kts 128°
2026-04-24 15:19 -2.60367 13.21784 40852 ft 464 kts 129°
2026-04-24 15:19 -2.64451 13.26798 40854 ft 463 kts 129°
2026-04-24 15:20 -2.68497 13.31767 40854 ft 463 kts 129°
2026-04-24 15:20 -2.72565 13.36765 40851 ft 463 kts 129°
2026-04-24 15:21 -2.76642 13.41774 40850 ft 463 kts 129°
2026-04-24 15:21 -2.80685 13.46743 40851 ft 463 kts 129°
2026-04-24 15:22 -2.84750 13.51738 40850 ft 463 kts 129°
2026-04-24 15:23 -2.90851 13.59236 40852 ft 463 kts 129°
2026-04-24 15:23 -2.96956 13.66741 40852 ft 463 kts 128°
2026-04-24 15:25 -3.07058 13.79162 40857 ft 460 kts 128°
2026-04-24 15:26 -3.17140 13.91564 40856 ft 460 kts 128°
2026-04-24 15:27 -3.29264 14.06457 40851 ft 460 kts 128°
2026-04-24 15:28 -3.37357 14.16392 39709 ft 458 kts 128°
2026-04-24 15:29 -3.41394 14.21365 38032 ft 467 kts 128°
2026-04-24 15:30 -3.47544 14.28947 35957 ft 467 kts 129°
2026-04-24 15:31 -3.55808 14.39126 32818 ft 477 kts 129°
2026-04-24 15:32 -3.64220 14.49494 29927 ft 479 kts 130°
2026-04-24 15:33 -3.72513 14.59718 27371 ft 466 kts 129°
2026-04-24 15:33 -3.78550 14.67163 25576 ft 456 kts 129°
2026-04-24 15:34 -3.82517 14.72057 24385 ft 450 kts 129°
2026-04-24 15:35 -3.88382 14.79293 22481 ft 440 kts 129°
2026-04-24 15:35 -3.92198 14.84003 21240 ft 430 kts 129°
2026-04-24 15:35 -3.94054 14.86293 20660 ft 426 kts 129°
2026-04-24 15:36 -3.95911 14.88584 20057 ft 422 kts 129°
2026-04-24 15:36 -3.99580 14.93111 18848 ft 415 kts 129°
2026-04-24 15:36 -4.01398 14.95355 18231 ft 412 kts 129°
2026-04-24 15:37 -4.03198 14.97577 17547 ft 409 kts 129°
2026-04-24 15:37 -4.04980 14.99779 16921 ft 405 kts 129°
2026-04-24 15:37 -4.06746 15.01960 16310 ft 400 kts 129°
2026-04-24 15:37 -4.08470 15.04089 15728 ft 396 kts 129°
2026-04-24 15:38 -4.10202 15.06224 15116 ft 393 kts 129°
2026-04-24 15:38 -4.11923 15.08348 14522 ft 389 kts 128°
2026-04-24 15:38 -4.13624 15.10447 13925 ft 387 kts 128°
2026-04-24 15:38 -4.15314 15.12534 13287 ft 384 kts 128°
2026-04-24 15:39 -4.16986 15.14598 12678 ft 380 kts 128°
2026-04-24 15:39 -4.18641 15.16644 12092 ft 375 kts 128°
2026-04-24 15:39 -4.20274 15.18660 11506 ft 371 kts 128°
2026-04-24 15:39 -4.21863 15.20625 11254 ft 348 kts 128°
2026-04-24 15:40 -4.23303 15.22400 11126 ft 318 kts 128°
2026-04-24 15:40 -4.24639 15.24045 10992 ft 292 kts 128°
2026-04-24 15:40 -4.25877 15.25557 10857 ft 270 kts 129°
2026-04-24 15:40 -4.27093 15.26948 10745 ft 259 kts 130°
2026-04-24 15:41 -4.28270 15.28266 10601 ft 249 kts 130°
2026-04-24 15:41 -4.29401 15.29536 10495 ft 239 kts 130°
2026-04-24 15:41 -4.30482 15.30755 10343 ft 228 kts 130°
2026-04-24 15:41 -4.31519 15.31931 10002 ft 223 kts 130°
2026-04-24 15:42 -4.32533 15.33083 9720 ft 222 kts 130°
2026-04-24 15:42 -4.33555 15.34241 9421 ft 220 kts 130°
2026-04-24 15:42 -4.34567 15.35390 9217 ft 219 kts 130°
2026-04-24 15:42 -4.35571 15.36531 8992 ft 218 kts 130°
2026-04-24 15:43 -4.36576 15.37671 8730 ft 217 kts 129°
2026-04-24 15:43 -4.37566 15.38809 8468 ft 216 kts 128°
2026-04-24 15:43 -4.38370 15.40063 8195 ft 213 kts 112°
2026-04-24 15:43 -4.38735 15.41491 7920 ft 212 kts 93°
2026-04-24 15:44 -4.38592 15.42948 7676 ft 212 kts 74°
2026-04-24 15:44 -4.37961 15.44277 7428 ft 212 kts 55°
2026-04-24 15:44 -4.37007 15.45403 7196 ft 211 kts 47°
2026-04-24 15:44 -4.36001 15.46453 6987 ft 211 kts 46°
2026-04-24 15:45 -4.34979 15.47513 6791 ft 212 kts 46°
2026-04-24 15:45 -4.33960 15.48580 6666 ft 211 kts 46°
2026-04-24 15:45 -4.32945 15.49650 6551 ft 211 kts 47°
2026-04-24 15:45 -4.31959 15.50694 6458 ft 201 kts 46°
2026-04-24 15:46 -4.31027 15.51681 6357 ft 190 kts 46°
2026-04-24 15:46 -4.30123 15.52642 6241 ft 189 kts 46°
2026-04-24 15:46 -4.29216 15.53605 6124 ft 189 kts 46°
2026-04-24 15:46 -4.28325 15.54554 6011 ft 190 kts 46°
2026-04-24 15:47 -4.27418 15.55519 5899 ft 190 kts 46°
2026-04-24 15:47 -4.26510 15.56485 5788 ft 190 kts 46°
2026-04-24 15:47 -4.25694 15.57527 5613 ft 191 kts 61°
2026-04-24 15:47 -4.25422 15.58810 5334 ft 192 kts 96°
2026-04-24 15:48 -4.25951 15.60008 5085 ft 190 kts 133°
2026-04-24 15:48 -4.27085 15.60594 4863 ft 185 kts 180°
2026-04-24 15:48 -4.28240 15.60204 4711 ft 175 kts 218°
2026-04-24 15:48 -4.29030 15.59344 4551 ft 164 kts 238°
2026-04-24 15:49 -4.29614 15.58367 4257 ft 165 kts 239°
2026-04-24 15:49 -4.30249 15.57363 3779 ft 176 kts 239°
2026-04-24 15:49 -4.30937 15.56306 3384 ft 182 kts 237°
2026-04-24 15:49 -4.31625 15.55272 3140 ft 173 kts 237°
2026-04-24 15:50 -4.32253 15.54295 2942 ft 160 kts 238°
2026-04-24 15:50 -4.32835 15.53384 2725 ft 149 kts 238°
2026-04-24 15:50 -4.33371 15.52549 2552 ft 138 kts 238°
2026-04-24 15:50 -4.33883 15.51753 2390 ft 136 kts 237°
2026-04-24 15:51 -4.34393 15.50957 2217 ft 135 kts 238°
2026-04-24 15:51 -4.34905 15.50156 2046 ft 136 kts 237°
2026-04-24 15:51 -4.35417 15.49360 1862 ft 136 kts 238°
2026-04-24 15:51 -4.35928 15.48562 1711 ft 136 kts 238°
2026-04-24 15:52 -4.36430 15.47778 1561 ft 136 kts 239°
2026-04-24 15:52 -4.36952 15.46964 1298 ft 139 kts 241°
2026-04-24 15:52 -4.37473 15.46150 1156 ft 148 kts 240°
2026-04-24 15:52 -4.38029 15.45283 1043 ft 143 kts 238°
2026-04-24 15:53 -4.38514 15.44530 1024 ft 104 kts 237°
2026-04-24 15:53 -4.38747 15.44182 1023 ft 23 kts 238°
2026-04-24 15:53 -4.38848 15.44109 1019 ft 17 kts 176°
2026-04-24 15:53 -4.38918 15.44139 1019 ft 0 kts 149°
2026-04-24 15:54 -4.38937 15.44152 1022 ft 7 kts 140°
2026-04-24 15:54 -4.38953 15.44200 1022 ft 8 kts 88°
2026-04-24 15:55 -4.38926 15.44255 1021 ft 10 kts 56°
2026-04-24 15:55 -4.38883 15.44320 1021 ft 12 kts 58°
2026-04-24 15:55 -4.38833 15.44399 1023 ft 14 kts 58°
2026-04-24 15:55 -4.38780 15.44473 1021 ft 13 kts 53°
2026-04-24 15:56 -4.38747 15.44536 1024 ft 8 kts 82°
2026-04-24 15:56 -4.38781 15.44568 1025 ft 6 kts 174°
2026-04-24 15:56 -4.38830 15.44555 1024 ft 8 kts 198°
2026-04-24 15:56 -4.38851 15.44548 1024 ft 0 kts 199°